Meteo pe oră la Dzierzki

Astăzi, 5 Martie, Vineri

Timp Temperatura Precipitaţii Vânt Presiune Umiditate
00:00 -4°C° 0 mm 3 m/s 749 mmHg 82%
01:00 -3°C° 0 mm 2 m/s 749 mmHg 84%
02:00 -3°C° 0 mm 2 m/s 749 mmHg 82%
03:00 -3°C° 0 mm 2 m/s 749 mmHg 80%
04:00 -4°C° 0 mm 2 m/s 749 mmHg 78%
05:00 -3°C° 0 mm 2 m/s 750 mmHg 76%
06:00 -3°C° 0 mm 2 m/s 750 mmHg 73%
07:00 -3°C° 0 mm 2 m/s 751 mmHg 70%
08:00 -2°C° 0 mm 2 m/s 751 mmHg 67%
09:00 -1°C° 0 mm 3 m/s 751 mmHg 63%
10:00 0°C° 0 mm 3 m/s 752 mmHg 59%
11:00 +1°C° 0.2 mm 3 m/s 752 mmHg 56%
12:00 +1°C° 0.2 mm 3 m/s 752 mmHg 52%
13:00 +2°C° 0.2 mm 3 m/s 752 mmHg 49%
14:00 +1°C° 0.1 mm 3 m/s 752 mmHg 49%
15:00 +1°C° 0.1 mm 3 m/s 753 mmHg 48%
16:00 +1°C° 0.1 mm 3 m/s 753 mmHg 48%
17:00 +1°C° 0 mm 2 m/s 753 mmHg 54%
18:00 -1°C° 0 mm 2 m/s 753 mmHg 60%
19:00 -2°C° 0 mm 2 m/s 754 mmHg 67%
20:00 -2°C° 0 mm 3 m/s 754 mmHg 69%
21:00 -2°C° 0 mm 3 m/s 755 mmHg 72%
22:00 -3°C° 0 mm 4 m/s 755 mmHg 75%
23:00 -4°C° 0 mm 3 m/s 755 mmHg 76%

Mâine, 6 Martie, Sâmbătă

Timp Temperatura Precipitaţii Vânt Presiune Umiditate
00:00 -4°C° 0 mm 3 m/s 756 mmHg 77%
01:00 -4°C° 0 mm 3 m/s 756 mmHg 78%
02:00 -4°C° 0 mm 3 m/s 756 mmHg 76%
03:00 -4°C° 0 mm 3 m/s 756 mmHg 73%
04:00 -3°C° 0 mm 2 m/s 756 mmHg 71%
05:00 -3°C° 0 mm 2 m/s 757 mmHg 71%
06:00 -3°C° 0 mm 2 m/s 757 mmHg 71%
07:00 -3°C° 0 mm 2 m/s 758 mmHg 71%
08:00 -2°C° 0 mm 2 m/s 758 mmHg 64%
09:00 -1°C° 0 mm 2 m/s 758 mmHg 57%
10:00 0°C° 0 mm 3 m/s 758 mmHg 50%
11:00 +1°C° 0 mm 3 m/s 758 mmHg 49%
12:00 0°C° 0 mm 4 m/s 757 mmHg 47%
13:00 +1°C° 0 mm 4 m/s 757 mmHg 45%
14:00 +1°C° 0 mm 4 m/s 757 mmHg 47%
15:00 +1°C° 0 mm 4 m/s 756 mmHg 49%
16:00 +1°C° 0 mm 4 m/s 755 mmHg 50%
17:00 0°C° 0 mm 4 m/s 755 mmHg 53%
18:00 -1°C° 0 mm 4 m/s 754 mmHg 56%
19:00 -2°C° 0 mm 5 m/s 754 mmHg 60%
20:00 -2°C° 0 mm 5 m/s 753 mmHg 68%
21:00 -3°C° 0 mm 6 m/s 753 mmHg 77%
22:00 -3°C° 0 mm 6 m/s 752 mmHg 86%
23:00 -3°C° 0 mm 7 m/s 752 mmHg 84%

Poimâine, 7 Martie, Duminică

Timp Temperatura Precipitaţii Vânt Presiune Umiditate
00:00 -2°C° 0 mm 7 m/s 751 mmHg 83%
01:00 -2°C° 0 mm 7 m/s 751 mmHg 82%
02:00 -2°C° 0.1 mm 8 m/s 750 mmHg 85%
03:00 -4°C° 0.1 mm 8 m/s 750 mmHg 87%
04:00 -4°C° 0.1 mm 8 m/s 749 mmHg 90%
05:00 -4°C° 0.1 mm 8 m/s 749 mmHg 90%
06:00 -4°C° 0.1 mm 8 m/s 749 mmHg 89%
07:00 -3°C° 0.1 mm 7 m/s 749 mmHg 89%
08:00 -3°C° 0.2 mm 7 m/s 749 mmHg 90%
09:00 -2°C° 0.2 mm 7 m/s 749 mmHg 91%
10:00 -2°C° 0.2 mm 7 m/s 749 mmHg 92%
11:00 -2°C° 0.1 mm 7 m/s 749 mmHg 91%
12:00 -2°C° 0.1 mm 7 m/s 748 mmHg 91%
13:00 -2°C° 0.1 mm 7 m/s 748 mmHg 90%
14:00 -2°C° 0.1 mm 7 m/s 748 mmHg 90%
15:00 -2°C° 0.1 mm 7 m/s 747 mmHg 90%
16:00 -2°C° 0.1 mm 7 m/s 747 mmHg 90%
17:00 -2°C° 0.6 mm 7 m/s 747 mmHg 92%
18:00 -3°C° 0.6 mm 6 m/s 747 mmHg 94%
19:00 -3°C° 0.6 mm 6 m/s 747 mmHg 96%
20:00 -3°C° 0.5 mm 4 m/s 747 mmHg 92%
21:00 -2°C° 0.5 mm 3 m/s 747 mmHg 89%
22:00 -3°C° 0.5 mm 2 m/s 747 mmHg 85%
23:00 -3°C° 0 mm 2 m/s 747 mmHg 85%

8 Martie, Luni

Timp Temperatura Precipitaţii Vânt Presiune Umiditate
00:00 -4°C° 0 mm 2 m/s 747 mmHg 84%
01:00 -4°C° 0 mm 2 m/s 747 mmHg 83%
02:00 -4°C° 0 mm 2 m/s 747 mmHg 83%
03:00 -5°C° 0 mm 3 m/s 747 mmHg 83%
04:00 -6°C° 0 mm 3 m/s 747 mmHg 83%
05:00 -5°C° 0 mm 3 m/s 747 mmHg 84%
06:00 -5°C° 0 mm 3 m/s 748 mmHg 86%
07:00 -5°C° 0 mm 3 m/s 748 mmHg 87%
08:00 -4°C° 0.1 mm 4 m/s 748 mmHg 80%
09:00 -3°C° 0.1 mm 4 m/s 749 mmHg 72%
10:00 -2°C° 0.1 mm 5 m/s 749 mmHg 65%
11:00 -2°C° 0.1 mm 5 m/s 749 mmHg 65%
12:00 -2°C° 0.1 mm 5 m/s 749 mmHg 65%
13:00 -2°C° 0.1 mm 6 m/s 750 mmHg 65%
14:00 -3°C° 0.1 mm 6 m/s 750 mmHg 67%
15:00 -4°C° 0.1 mm 6 m/s 750 mmHg 69%
16:00 -4°C° 0.1 mm 6 m/s 750 mmHg 72%
17:00 -5°C° 0 mm 5 m/s 751 mmHg 74%
18:00 -5°C° 0 mm 4 m/s 751 mmHg 76%
19:00 -7°C° 0 mm 4 m/s 752 mmHg 78%
20:00 -6°C° 0 mm 3 m/s 752 mmHg 78%
21:00 -6°C° 0 mm 3 m/s 753 mmHg 79%
22:00 -6°C° 0 mm 3 m/s 753 mmHg 79%
23:00 -6°C° 0 mm 2 m/s 754 mmHg 79%

9 Martie, Marţi

Timp Temperatura Precipitaţii Vânt Presiune Umiditate
00:00 -6°C° 0 mm 2 m/s 754 mmHg 80%
01:00 -6°C° 0 mm 2 m/s 754 mmHg 80%
02:00 -6°C° 0 mm 2 m/s 754 mmHg 79%
03:00 -6°C° 0 mm 2 m/s 754 mmHg 78%
04:00 -4°C° 0 mm 1 m/s 755 mmHg 77%
05:00 -4°C° 0 mm 1 m/s 755 mmHg 76%
06:00 -4°C° 0 mm 1 m/s 755 mmHg 75%
07:00 -4°C° 0 mm 1 m/s 755 mmHg 73%
08:00 -3°C° 0 mm 1 m/s 755 mmHg 65%
09:00 -3°C° 0 mm 1 m/s 756 mmHg 57%
10:00 -2°C° 0 mm 1 m/s 756 mmHg 49%
11:00 -1°C° 0 mm 1 m/s 756 mmHg 46%
12:00 -1°C° 0 mm 1 m/s 756 mmHg 43%
13:00 0°C° 0 mm 1 m/s 756 mmHg 40%
14:00 0°C° 0 mm 1 m/s 756 mmHg 41%
15:00 0°C° 0 mm 1 m/s 755 mmHg 43%
16:00 0°C° 0 mm 1 m/s 755 mmHg 44%
17:00 -1°C° 0 mm 1 m/s 755 mmHg 48%
18:00 -4°C° 0 mm 2 m/s 755 mmHg 51%
19:00 -4°C° 0 mm 2 m/s 755 mmHg 55%
20:00 -5°C° 0 mm 2 m/s 755 mmHg 56%
21:00 -5°C° 0 mm 2 m/s 755 mmHg 56%
22:00 -5°C° 0 mm 2 m/s 755 mmHg 57%
23:00 -5°C° 0 mm 2 m/s 755 mmHg 58%

10 Martie, Miercuri

Timp Temperatura Precipitaţii Vânt Presiune Umiditate
00:00 -5°C° 0 mm 2 m/s 755 mmHg 59%
01:00 -5°C° 0 mm 2 m/s 755 mmHg 60%
02:00 -5°C° 0 mm 2 m/s 754 mmHg 60%
03:00 -6°C° 0 mm 2 m/s 754 mmHg 60%
04:00 -6°C° 0 mm 2 m/s 754 mmHg 60%
05:00 -5°C° 0 mm 2 m/s 754 mmHg 60%
06:00 -5°C° 0 mm 2 m/s 754 mmHg 61%
07:00 -5°C° 0 mm 2 m/s 753 mmHg 61%
08:00 -5°C° 0 mm 3 m/s 753 mmHg 57%
09:00 -4°C° 0 mm 3 m/s 753 mmHg 53%
10:00 -1°C° 0 mm 3 m/s 753 mmHg 49%
11:00 -1°C° 0 mm 3 m/s 753 mmHg 47%
12:00 0°C° 0 mm 3 m/s 753 mmHg 45%
13:00 +1°C° 0 mm 3 m/s 752 mmHg 43%
14:00 +1°C° 0 mm 3 m/s 752 mmHg 45%
15:00 +1°C° 0 mm 3 m/s 751 mmHg 47%
16:00 +1°C° 0 mm 3 m/s 751 mmHg 48%
17:00 0°C° 0 mm 3 m/s 751 mmHg 53%
18:00 -1°C° 0 mm 3 m/s 750 mmHg 58%
19:00 -2°C° 0 mm 3 m/s 750 mmHg 63%
20:00 -2°C° 0 mm 3 m/s 749 mmHg 64%
21:00 -2°C° 0 mm 3 m/s 749 mmHg 64%
22:00 -2°C° 0 mm 3 m/s 749 mmHg 65%
23:00 -3°C° 0 mm 4 m/s 748 mmHg 68%
Arată mai mult

Formular de consimțământ

Meteoprog și furnizorii noștri de servicii pot stoca și accesa date personale, precum cookies, identificatori de dispozitiv sau alte tehnologii similare pe dispozitivul dumneavoastră și procesa astfel de date pentru a personaliza conținutul și reclamele, dar și pentru a oferi caracteristici de social media și pentru a analiza traficul.

  • Stocarea și/sau accesarea informațiilor pe dispozitivul dumneavoastră

    Cookies, identificatori de dispozitiv sau alte informații pot fi stocate sau accesate pe dispozitiv în scopurile indicate mai sus.

  • Reclame și conținut personalizat, evaluarea reclamelor și a conținutului, informații despre audiențe și dezvoltarea produselor

    Reclamele și conținutul pot fi personalizate pe baza unui profil. Pot fi adăugate date suplimentare pentru a personaliza mai bine reclamele și conținutul. Performanța reclamelor și conținutului poate fi măsurată. Pot fi obținute informații despre utilizatorii care au văzut reclamele și conținutul. Aceste date pot fi utilizate pentru a dezvolta sau îmbunătăți experiența utilizatorilor, sistemele și software-ul.

Dând clic pe ‘Sunt de acord’, permiteți utilizarea cookie-urilor menționate, a identificatorilor de dispozitiv, balizelor web sau altor tehnologii similare. Setările pot fi modificate din browser-ul dispozitivului dumneavoastră.

În anumite scopuri, interesele legitime pot prima asupra consimțământului. Puteți citi mai multe informații în acest sens în Politica privind Confidențialitatea Datelor și Cookie.